sat.trackr.live / text

‹ back to catalog

YUNHAI-1 01

NORAD 41857 · 2016-068A

PAYLOAD ACTIVE UNKNOWN

§ Identity

Operator
Country
PRC
Launch date
2016-11-11
Launch site
JSC
Launch vehicle
Mass (kg)
RCS (m²)
4.24

External: N2YO · Heavens-Above · Gunter

§ Orbital elements

Epoch: 2026-05-25T04:32:57.451776Z

Period
100.51 min
Inclination
98.5843°
Eccentricity
0.0006497
Mean motion
14.32688099 rev/d
Perigee alt
778.1 km
Apogee alt
787.4 km
Semi-major
7,160.9 km
B*
1.3804e-4
RAAN
156.4112°
Arg perigee
98.4536°
Mean anomaly
261.7384°
Rev number
49,853

§ Raw data

YUNHAI-1 011 41857U 16068A   26145.18955384  .00000332  00000+0  13804-3 0  99932 41857  98.5843 156.4112 0006497  98.4536 261.7384 14.32688099498535

JSON: /api/v1/satellites/41857 · /tle

For live sub-satellite position, see the globe view (requires WebGL).

§ Visibility from observer

Set your observer location to see the next 7 days of passes ≥ 10°. The values pass through the URL so the page stays shareable.

No JS? Fill the form by hand. The geolocation button needs JavaScript.

§ Radio — SatNOGS DB

ModeDescriptionDownlinkUplink
FM Mode L 1.704 GHz

1 transmitter · refreshed weekly from db.satnogs.org